Regional Weather Roundup
Issued by NWS

Home | Current Version | Previous Version | Graphics & Text | Print | Product List | Glossary On
Versions: 1 2 3 4 5 6 7 8 9 10 11 12 13 14 15 16 17 18 19 20 21 22 23 24 25 26 27 28 29 30 31 32 33 34 35 36 37 38 39 40 41 42 43 44 45 46 47 48 49 50
000
ASUS43 KLOT 291503
RWRIL

ILLINOIS REGIONAL WEATHER ROUNDUP
NATIONAL WEATHER SERVICE CHICAGO/ROMEOVILLE IL
1000 AM CDT FRI APR 29 2016

NOTE: "FAIR" INDICATES FEW OR NO CLOUDS BELOW 12,000 FEET WITH NO
SIGNIFICANT WEATHER AND/OR OBSTRUCTIONS TO VISIBILITY.

* THESE STATIONS ARE NOT UNDER NWS QUALITY CONTROL. THEY ALSO MAY NOT
  REPORT WEATHER SUCH AS PRECIPITATION OR FOG.

ILZ001-002-007-009-015-016-024-291600-
NORTHWEST ILLINOIS

CITY           SKY/WX    TMP DP  RH WIND       PRES   REMARKS
MOLINE         CLOUDY    47  39  74 NE8       30.11R
STERLING*      CLOUDY    45  39  81 NE8       30.12R
$$

ILZ003-004-008-010-011-017-018-291600-
NORTH CENTRAL ILLINOIS

CITY           SKY/WX    TMP DP  RH WIND       PRES   REMARKS
ROCKFORD       CLOUDY    46  38  73 N12       30.12R
FREEPORT*      CLOUDY    44  38  80 N8        30.12R
DE KALB*       CLOUDY    43  39  86 N6        30.12R
$$

ILZ005-006-012>014-019>023-291600-
NORTHEAST ILLINOIS

CITY           SKY/WX    TMP DP  RH WIND       PRES   REMARKS
CHICAGO-OHARE  CLOUDY    45  39  79 NE5       30.10R
CHICAGO-MIDWAY CLOUDY    45  39  79 NE10      30.11R
AURORA         CLOUDY    44  40  85 NE7       30.11R
LANSING*       CLOUDY    43  40  89 N9        30.11R
WAUKEGAN       CLOUDY    42  39  89 NE8       30.09R
DUPAGE AIRPORT CLOUDY    44  38  79 NE8       30.10R
WHEELING       CLOUDY    44  39  82 VRB3      30.10R
NORTHERLY ISL    N/A     43  40  89 MISG        N/A
NORTHERLY ISL    N/A     43  40  89 MISG        N/A
$$

LMZ740>746-291600-
SOUTHERN LAKE MICHIGAN

STATION/POSITION SKY/WX   TEMP    WIND        PRES    VSBY  WAVE
                          AIR SEA DIR/SP/G                  HT/PER
                          (F)     (DEG/KT/KT) (MB)    (MI)  (FT/S)
SOUTHERN BUOY              40 40   30/  8/ 10 1018.9          1/ 3
HARRISON CRIB              42     360/ 14/ 16   N/A
BURNHAM HARBOR             43      10/  8/ 14   N/A
CALUMET HARBOR             42     340/ 14/ 17 1017.2F
BURNS HARBOR               42     340/ 10/ 16 1018.6S
MICHIGAN CITY              41     290/ 13/ 14   N/A
ST. JOSEPH                 44 46     CALM       N/A           1/ 2
$$

ILZ025>027-034>036-040-047-049-050-058-095>099-291600-
WEST-CENTRAL ILLINOIS

CITY           SKY/WX    TMP DP  RH WIND       PRES   REMARKS
QUINCY         CLOUDY    51  47  86 NE12      30.08F
MACOMB*        CLOUDY    49  46  90 E6        30.13R FOG
$$

ILZ028>032-037-038-041>044-048-051>054-059>061-291600-
CENTRAL ILLINOIS

CITY           SKY/WX    TMP DP  RH WIND       PRES   REMARKS
BLOOMINGTON    CLOUDY    49  47  93 NE8       30.10R FOG
DECATUR        CLOUDY    54  48  80 NE6       30.09R
PEORIA         CLOUDY    50  43  77 NE6       30.10R
SPRINGFIELD    CLOUDY    55  49  80 N6        30.09S
TAYLORVILLE    NOT AVBL
$$

ILZ033-039-045-046-055>057-062-063-291600-
EAST-CENTRAL ILLINOIS

CITY           SKY/WX    TMP DP  RH WIND       PRES   REMARKS
CHAMPAIGN      CLOUDY    55  48  77 N8        30.07S
MATTOON        PTSUNNY   58  49  72 VRB5      30.07R
$$

ILZ079-100>102-291600-
SOUTHWEST ILLINOIS

CITY           SKY/WX    TMP DP  RH WIND       PRES   REMARKS
ALTON          CLOUDY    55  50  82 N8        30.04F
CAHOKIA*       CLOUDY    60  49  66 NE7       30.03F
SPARTA*        CLOUDY    58  51  77 NE6       30.05S
$$

ILZ064>066-069>071-074>076-080>082-084>086-088>090-092>094-291600-
SOUTH-CENTRAL ILLINOIS

CITY           SKY/WX    TMP DP  RH WIND       PRES   REMARKS
CARBONDALE     CLOUDY    61  50  67 E6        30.03S
MARION         MOSUNNY   63  52  67 E12       30.03F
MT. VERNON     CLOUDY    61  50  67 NE10      30.03F
SALEM*         CLOUDY    60  51  71 NE9       30.03F
$$

ILZ067-068-072-073-078-083-087-091-291600-
SOUTHEAST ILLINOIS

CITY           SKY/WX    TMP DP  RH WIND       PRES   REMARKS
LAWRENCEVILLE  CLOUDY    63  52  67 VRB6      30.07F
FLORA*         CLOUDY    62  53  74 N6        30.04F
HARRISBURG*    PTSUNNY   62  53  72 E10       30.04S
ROBINSON*      CLOUDY    59  52  77 N5        30.07F
$$

ABBREVIATIONS USED IN REMARKS
   TC - TEMPERATURE IN CELSIUS
  WCI - WIND CHILL INDEX
   HX - HEAT INDEX
  VSB - VISIBILITY
$$




USA.gov is the U.S. government's official web portal to all federal, state and local government web resources and services.